星链-3832 (STARLINK-3832 )

导读 | 星芒AI

STARLINK-3832 是 SpaceX Starlink 项目中的一颗低轨通信卫星,属于第 38 批发射的 Starlink 卫星群之一。该卫星于 2023 年发射,运行在约 550 公里的轨道高度,旨在为全球用户提供高速互联网服务。Starlink 卫星采用先进的相控阵天线和激光通信技术,支持低延迟、高带宽的连接。该项目致力于改善偏远地区的网络覆盖,同时为商业和军事用户提供可靠的通信支持。STARLINK-3832 是 SpaceX 扩展全球卫星互联网基础设施的重要组成部分。

基本信息
目录编号:
52646
目录名称:
STARLINK-3832
国际标识:
2022-052BA
轨道中心:
EARTH
卫星名称:
星链-3832
卫星全名:
星链-3832 (STARLINK-3832 )
卫星状态:
在轨 (已飞行1317 天)
发射日期:
2022-05-14 UTC
国别 :
美国 (US)
星等 :
--
轨道信息
数据来源 国际轨道数据
星历时间: 2025-12-20T07:23:22+0800
1天前
查看轨道信息
半长轴: 6917.975km
偏心率: 0.0001504
轨道倾角: 53.216°
近地点辐角 82.362°
升交点赤经 257.012°
平近点角 277.755°
近地点: 538.797km
远地点: 540.879km
周期: 95.440分钟
每日圈数: 15.088091
详细信息
固有亮度:
5
最大亮度:
2.5
卫星平台:
Starlink v1.5
覆盖范围:
全球
运营商:
太空探索技术公司
运营商所在国:
美国
制造商(研发单位):
太空探索技术公司
制造商所在国:
美国
使用方式:
暂无
卫星简介
星链(Starlink)计划是由太空探索技术公司(SpaceX)提出的一个巨型低轨卫星互联网星座项目,计划在2019年至2024年间在太空搭建由约1.2万颗卫星组成的“星链”网络,其中1584颗将部署在地球上空550千米处的近地轨道,并从2020年开始工作。该卫星仍在工作。
2D轨道图
3D轨道图
轨道高度分析图
轨道倾角分析图
轨道综合分析图
查看轨道综合分析图